Torna al catalogo

CZ-6A DEB

AttivoPO
NORAD 61132·DEBRIS·🇨🇳 China

Lanciato Aug 6, 2024 da Taiyuan Satellite Launch Center

Loading…

Prossimi Passaggi (prossime 24 ore)

TLE

AggiornatoSource: Space-Track

Epoca: Sep 14, 2026, 10:37 UTC

1 61132U 24140QA  26257.44301937  .00002494  00000-0  73563-3 0  9993
2 61132  88.9783 260.0532 0044832  57.5758 302.9769 14.42752705108343

Traccia CZ-6A DEB in tempo reale con AllMySat

Download on the App Store